Location: Devore Heights
(34.2372°N, 117.4156°W)
Time: 00:11:41
(UTC+00:00)

Transit 4A - Pass Details

Date: 17 September 2024
Orbit: 864 x 978 km, 66.8° (Epoch: 13 October)

Event Time Altitude Azimuth Distance (km) Brightness Sun altitude
Rises 08:22:56 0° 160° (SSE) 3,431 - -52.6°
Reaches altitude 10° 08:26:22 10° 139° (SE) 2,506 - -52.4°
Maximum altitude 08:29:44 16° 103° (ESE) 2,124 - -52.2°
Drops below altitude 10° 08:33:08 10° 67° (ENE) 2,542 - -52.0°
Exits shadow 08:35:31 - 52° (NE) 3,169 11.1 -51.8°
Sets 08:36:38 0° 47° (NE) 3,506 11.4 -51.7°
